Location: Curupao
(10.4996°N, 66.6442°W)
Time: 22:49:07
(UTC+00:00)

COSMOS 2428 - Pass Details

Date: 23 May 2024
Orbit: 844 x 856 km, 70.9° (Epoch: 14 June)

Event Time Altitude Azimuth Distance (km) Brightness Sun altitude
Rises 08:57:43 0° 350° (N) 3,397 6.0 -15.7°
Reaches altitude 10° 09:00:12 10° 353° (N) 2,464 5.4 -15.2°
Maximum altitude 09:05:47 62° 74° (ENE) 953 3.3 -14.0°
Drops below altitude 10° 09:11:23 10° 154° (SSE) 2,473 5.2 -12.7°
Sets 09:13:52 0° 157° (SSE) 3,410 5.9 -12.1°
